Regional Weather Roundup
Issued by NWS

Home | Current Version | Previous Version | Graphics & Text | Print | Product List | Glossary On
Versions: 1 2 3 4 5 6 7 8 9 10 11 12 13 14 15 16 17 18 19 20 21 22 23 24 25 26 27 28 29 30 31 32 33 34 35 36 37 38 39 40 41 42 43 44 45 46 47 48 49 50
704
ASUS43 KFSD 270302
RWRSD

WEATHER ROUNDUP FOR SOUTH DAKOTA
NATIONAL WEATHER SERVICE SIOUX FALLS SD
1000 PM CDT SAT MAY 26 2018

NOTE: "FAIR" INDICATES FEW OR NO CLOUDS BELOW 12,000 FEET WITH NO
SIGNIFICANT WEATHER AND/OR OBSTRUCTIONS TO VISIBILITY.


SDZ001>005-009-010-012>017-270400-
NORTHWEST AND NORTH CENTRAL SOUTH DAKOTA

CITY           SKY/WX    TMP DP  RH WIND       PRES   REMARKS
BUFFALO          N/A     75  60  59 E15       29.65F
FAITH            N/A     77  62  59 E15       29.70R
MOBRIDGE       CLEAR     81  62  52 E14       29.69S
$$

SDZ012>016-024>037-041>051-057-063-072>074-270400-
SOUTHWEST AND SOUTH CENTRAL SOUTH DAKOTA

CITY           SKY/WX    TMP DP  RH WIND       PRES   REMARKS
RAPID CTY ARPT PTCLDY    72  67  84 CALM      29.69F
PIERRE         CLEAR     74  65  73 NE3       29.69S
CUSTER         CLOUDY    68  49  50 NE3       29.88F
ELLSWORTH AFB  PTCLDY    80  65  58 CALM      29.70S
PHILIP         CLEAR     78  66  66 SE10      29.67R
PINE RIDGE     MOCLDY    79  51  37 SE12      29.73R
SPEARFISH      FAIR      70  52  52 S14       29.76R
WINNER         FAIR      76  65  68 SE10      29.73S
$$

SDZ004>011-016>023-039-040-270400-
NORTHEAST SOUTH DAKOTA

CITY           SKY/WX    TMP DP  RH WIND       PRES   REMARKS
ABERDEEN       CLEAR     74  53  48 E3        29.73R
WATERTOWN      CLEAR     80  55  42 E5        29.77R
BROOKINGS      CLEAR     80  54  40 E5        29.78R
SISSETON         N/A     73  58  59 S8        29.72R
$$

SDZ017-020-022-023-036>040-048>070-270400-
SOUTHEAST SOUTH DAKOTA

CITY           SKY/WX    TMP DP  RH WIND       PRES   REMARKS
SIOUX FALLS    CLEAR     75  60  59 CALM      29.77R
HURON          CLEAR     78  59  51 SE7       29.73R
CHAMBERLAIN    CLEAR     79  68  70 SE8       29.73S
MITCHELL       CLEAR     81  59  47 SE7       29.74R
YANKTON        CLEAR     83  57  41 E6        29.76R
$$

ABBREVIATIONS USED IN REMARKS
   TC - TEMPERATURE IN CELSIUS
  WCI - WIND CHILL INDEX
   HX - HEAT INDEX
  VSB - VISIBILITY





USA.gov is the U.S. government's official web portal to all federal, state and local government web resources and services.